Orbcomm A3

operational
NORAD ID: 25119 Int'l Des: 1997-084 Owner: ORBC Country: US Constellation: orbcomm
LEOCIRCULAR

Orbcomm A3について

説明を読み込み中...

リアルタイム位置

3D地球を読み込み中...

次回通過

高度履歴

Altitude vs Time

uPlot chart will show altitude changes over time

軌道要素

1 25119U 97084H 26072.34239137 .00001541 00000-0 45636-3 0 9993
2 25119 45.0117 154.7600 0003175 177.1819 182.9051 14.47289208480497
Epoch: Mar 13, 2026 • Age: 42 hours

現在のステータス

高度 738.6 km
速度 7.49 km/s
衛星直下点 42.68°N, 136.85°E
打ち上げ日 Dec 23, 1997
運用期間 28.2 years
タイプ other

技術仕様

分類 Payload
質量 42.00 kg
乾燥質量 42.00 kg
総質量 42.00 kg
長さ 0.20 m
直径 1.00 m
スパン 4.30 m
形状 Cyl + 2 Pan + Ant
製造者 OSCG
バスタイプ Microstar
フェーズステータス Unknown Transfer Status
所有者/国 ORBC/US

大規模コンステレーション

Loading constellations...